Anacortes, WA (98221)

10:56 AM PST on January 22, 2017 (GMT -0800)
Cap Sante Marina | | Change Station
Active Advisory: Small Craft Advisory

Elev 7 ft 48.51 °N, 122.61 °W | Updated 11 minutes ago

Rain
Rain
46.6 °F
Feels Like 41 °F
N
13.0
Wind Variable Wind from SE
Gusts 17.0 mph

Today
High -- | Low -- °F
--% Chance of Precip.
Yesterday
High -- | Low -- °F
Precip. -- in
Pressure 29.52 in
Visibility 10.0 miles
Clouds Scattered Clouds 4500 ft
Mostly Cloudy 6000 ft
Overcast 12000 ft
Windchill 41 °F
Dew Point 40 °F
Humidity 79%
Rainfall 0.00 in
Snow Depth Not available.
7:50 AM 4:53 PM
Waning Crescent, 24% visible
METAR KNUW 221756Z 14012KT 10SM -RA SCT045 BKN060 OVC120 08/02 A2952 RMK AO2 RAB36 SLP996 P0000 60000 T00780022 10083 20033 53023 $
Pressure 29.52 in
Visibility 10.0 miles
Clouds Scattered Clouds 4500 ft
Mostly Cloudy 6000 ft
Overcast 12000 ft
Windchill 41 °F
Dew Point 40 °F
Humidity 79%
Rainfall 0.00 in
Snow Depth Not available.
7:50 AM 4:53 PM
Waning Crescent, 24% visible
METAR KNUW 221756Z 14012KT 10SM -RA SCT045 BKN060 OVC120 08/02 A2952 RMK AO2 RAB36 SLP996 P0000 60000 T00780022 10083 20033 53023 $

Get Your Daily Forecast Email!

Thanks for signing up!

Be on the lookout for a verification email in your inbox.

You'll start receiving the daily forecast at 8 AM.

×

10-Day Weather Forecast

Almanac

Astronomy

Jan. 22, 2017 Rise Set
Actual Time
Civil Twilight
Nautical Twilight
Astronomical Twilight
Moon
Length of Visible Light
Length of Day
Tomorrow will be .
, % of the Moon is Illuminated

Today's Extremes

State Highs State Lows

Community

WunderPhotos

Upload Photos

1,962,540 photos uploaded!

WunderBlog® & News

Nearby

Air Quality

  Air Quality AQ Index Pollutant
Not available.

Snow Depth

Station Depth Elevation

Earthquake Activity

City Distance Mag. Time & Date
Minimum magnitude displayed is 2.5.

Coastal Water Temperatures

Place Temperature

Stations

Nearby Weather Stations

Station Location Temp. Windchill Dew Point Humidity Wind Precip. Elev Updated Type
                   

Watches & Warnings

Small Craft Advisory
Issued: 8:49 AM PST Jan. 22, 2017 – National Weather Service

... Small Craft Advisory remains in effect until 6 PM PST this
evening...

* winds... southeast 15 to 25 knots.

Precautionary/preparedness actions...

A Small Craft Advisory means that wind speeds of 21 to 33 knots are
expected to produce hazardous wave conditions to small craft.
Inexperienced mariners... especially those operating smaller vessels
should avoid navigating in these conditions.